Meteo Giornale » Osservazioni meteo Italia » Treviso-S Angelo

ore: 21:20 - Osservazioni Meteo Treviso-S Angelo
Lat. 45° 39' N Lon. 12° 11' E Alt. 18 metri s.l.m.

nuvoloso Europe/Rome

20 °C

Nuvoloso

Temp. 24 Ore

18 °C

24 °C

Nord

5.5 Km/h

Dew point 19 °C

Umidità 93 %

Visibilità  10 Km

Il sole sorge alle ore 06:58

Il sole tramonta alle ore 19:08

Data e Ora Cielo e Fenomeni T °C DP °C Um. % Pres. hPa Vis. km Vento km/h
Oggi h: 21:20 nuvoloso Nuvoloso 20 19 93 1009 10 N 5.5
Oggi h: 20:50 nuvoloso Nuvoloso 20 19 93 1009 10 N 5.5
Oggi h: 20:20 nuvoloso Nuvoloso 20 19 93 1009 10 N 5.5
Oggi h: 19:50 poco_nuvoloso Poco Nuvoloso 20 19 93 1009 10 N 5.5
Oggi h: 19:20 poco_nuvoloso Poco Nuvoloso 20 19 93 1009 10 E/NE 7.4
Oggi h: 18:50 sereno Sereno 21 19 88 1008 10 E 9.3
Oggi h: 18:20 sereno Sereno 21 19 88 1008 10 N 5.5
Oggi h: 17:20 nuvoloso Nuvoloso 21 19 88 1008 10 N/NE 7.4
Oggi h: 16:20 nuvoloso Nuvoloso 21 19 88 1009 8 N 9.3
Oggi h: 15:50 nuvoloso_piovaschi Rovescio di Pioggia 23 17 68 1009 8 N/NO 7.4
Oggi h: 15:20 nuvoloso Nuvoloso 24 16 60 1009 10 O/SO 7.4
Oggi h: 14:50 nuvoloso Nuvoloso 24 16 60 1009 10 S/SO 13
Oggi h: 14:20 nuvoloso Nuvoloso 23 17 68 1009 10 S 9.3
Oggi h: 13:50 nuvoloso Nuvoloso 23 17 68 1009 10 N 5.5
Oggi h: 13:20 nuvoloso Nuvoloso 22 17 73 1010 10 SE 9.3
Oggi h: 12:50 nuvoloso Nuvoloso 22 17 73 1010 10 N 5.5
Oggi h: 12:20 nuvoloso Nuvoloso 21 17 77 1010 10 SO 7.4
Oggi h: 11:50 nuvoloso Nuvoloso 22 17 73 1010 10 N 3.7
Oggi h: 11:20 nuvoloso Nuvoloso 21 17 77 1010 10 N 3.7
Oggi h: 10:50 nuvoloso Nuvoloso 20 17 82 1010 10 N 3.7
Oggi h: 10:20 nuvoloso Nuvoloso 20 17 82 1010 10 N 5.5
Oggi h: 09:20 molto_nuvoloso Molto Nuvoloso 19 17 88 1010 6 N 1.8
Oggi h: 08:50 foschia Foschia 18 18 100 1010 5 N 1.8
Oggi h: 08:20 foschia Foschia 18 18 100 1010 5 N 5.5
Oggi h: 07:50 foschia Foschia 18 18 100 1010 4 N 1.8
Oggi h: 07:20 foschia Foschia 18 18 100 1010 4 N 1.8
Oggi h: 06:50 foschia Foschia 18 18 100 1010 5 N 1.8
Oggi h: 05:50 molto_nuvoloso Molto Nuvoloso 18 17 93 1010 6 N 5.5
Oggi h: 05:20 molto_nuvoloso Molto Nuvoloso 18 18 100 1010 6 N 5.5
Oggi h: 04:50 molto_nuvoloso Molto Nuvoloso 18 18 100 1010 9 N 5.5
Oggi h: 04:20 coperto Coperto 18 18 100 1010 10 N 1.8
Oggi h: 03:50 coperto Coperto 18 18 100 1010 10 N 3.7
Oggi h: 03:20 coperto Coperto 18 18 100 1010 10 N 5.5
Oggi h: 02:50 coperto Coperto 18 18 100 1011 9 N 5.5
Oggi h: 02:20 coperto Coperto 18 18 100 1011 9 N 3.7
Oggi h: 01:50 coperto Coperto 18 18 100 1011 10 N 1.8
Oggi h: 01:20 molto_nuvoloso Molto Nuvoloso 18 18 100 1011 6 N 1.8
Oggi h: 00:50 molto_nuvoloso Molto Nuvoloso 18 18 100 1011 10 N 1.8
Oggi h: 00:20 molto_nuvoloso Molto Nuvoloso 18 18 100 1011 10 N 3.7
Ieri h: 23:50 coperto Coperto 18 18 100 1012 10 N 3.7
Ieri h: 23:20 molto_nuvoloso Molto Nuvoloso 19 18 93 1012 10 N 7.4
Ieri h: 22:50 coperto_pioggia Pioggia Debole 19 18 93 1012 10 NE 9.3
Ieri h: 22:20 coperto_pioggia Pioggia 19 19 100 1012 10 NE 11.1
Ieri h: 21:50 coperto_pioggia Pioggia 20 18 88 1013 10 NE 7.4